Location: Eferding
(48.3167°N, 14.0167°E)
Time: 08:43:54
(UTC+00:00)

Cosmos 1238 Rocket - Pass Details

Date: 12 November 2019
Orbit: 374 x 1033 km, 82.9° (Epoch: 05 December)

Event Time Altitude Azimuth Distance (km) Brightness Sun altitude
Rises 16:21:29 0° 353° (N) 3,276 6.7 -8.9°
Reaches altitude 10° 16:24:06 10° 356° (N) 2,230 5.8 -9.3°
Maximum altitude 16:28:59 62° 77° (ENE) 708 3.1 -10.1°
Drops below altitude 10° 16:32:56 10° 159° (SSE) 1,811 5.4 -10.7°
Sets 16:34:53 0° 163° (SSE) 2,607 6.2 -11.0°
